Location: Beccas
(43.4309°N, 0.1528°E)
Time: 22:18:34
(UTC+00:00)

Tiangong - Visible Passes

Search period start: 20 January 2022 00:00
Search period end: 30 January 2022 00:00
Orbit: 383 x 386 km, 41.5° (Epoch: 20 January)

Date Brightness Start Highest point End Pass type
(mag) Time Alt. Az. Time Alt. Az. Time Alt. Az.
26 Jan 4.0 19:21:00 10° SW 19:21:27 13° SSW 19:21:27 13° SSW visible
27 Jan 3.1 18:21:55 10° SSW 18:24:03 17° SSE 18:24:42 16° SE visible
28 Jan 2.4 18:57:47 10° SW 19:00:05 32° SSW 19:00:05 32° SSW visible
29 Jan 2.6 17:58:20 10° SW 18:01:01 25° SSE 18:03:11 13° ESE visible
29 Jan 3.9 19:34:26 10° WSW 19:35:24 18° WSW 19:35:24 18° WSW visible
